Regional Weather Roundup
Issued by NWS Wakefield, VA

Home | Current Version | Previous Version | Graphics & Text | Print | Product List | Glossary On
Versions: 1 2 3 4 5 6 7 8 9 10 11 12 13 14 15 16 17 18 19 20 21 22 23 24 25 26 27 28 29 30 31 32 33 34 35 36 37 38 39 40 41 42 43 44 45 46 47 48 49 50
000
ASUS41 KAKQ 280915
RWRAKQ

REGIONAL WEATHER ROUNDUP
NATIONAL WEATHER SERVICE WAKEFIELD VA
500 AM EDT THU APR 28 2016

Note: "fair" indicates few or no clouds below 12,000 feet with no
significant weather and/or obstructions to visibility. * = Denotes
station may not report precipitation (e.g., rain,snow,etc.),
thunder or fog.

VAZ042-051-052>054-056-281000-
NORTHERN VIRGINIA

CITY           SKY/WX    TMP DP  RH WIND       PRES   REMARKS
WASH NATIONAL  CLOUDY    54  50  86 E7        29.95R
DULLES         CLOUDY    53  50  89 E6        29.94R
FORT BELVOIR   CLOUDY    54  51  89 CALM      29.95R
QUANTICO       CLOUDY    56  52  86 E7        29.95R
FREDERICKSBRG* CLOUDY    55  55 100 CALM      29.93R
STAFFORD*      CLOUDY    54  51  89 NE3       29.97S
WARRENTON      CLOUDY    55  49  80 E5        29.92S
CULPEPER*      CLOUDY    55  55  97 CALM      29.94R FOG
MANASSAS*      CLOUDY    54  54 100 NE3       29.94R
LEESBURG*      CLOUDY    54  54 100 NE3       29.94S FOG
WINCHESTER     CLOUDY    52  52 100 NE3       29.92R FOG
FRONT ROYAL*   CLOUDY    54  52  94 NE3       29.91R
LURAY*         CLOUDY    54  54 100 CALM      29.91R FOG
$$

VAZ048-049-060>072-079>083-281000-
CENTRAL AND SOUTH CENTRAL VIRGINIA

CITY           SKY/WX    TMP DP  RH WIND       PRES   REMARKS
RICHMOND       CLOUDY    56  56 100 NE3       29.91S FOG
CHESTERFIELD*  CLOUDY    57  46  67 CALM      29.93R
PETERSBURG*    LGT RAIN  60  60 100 CALM      29.92R
HANOVER        FOG       55  53  93 CALM      29.93R VSB 1
TAPPAHANNOCK*  MOCLDY    56  56 100 NE3       29.93F FOG
QUINTON*       CLOUDY    56  56  98 NE9       29.91S FOG
CHARLOTTSVILLE LGT RAIN  57  54  89 CALM      29.90F
GORDONSVILLE*  CLOUDY    55  55 100 CALM      29.91F FOG
ORANGE*        CLOUDY    55  55 100 CALM      29.94R
LOUISA*        CLOUDY    57  57 100 CALM      29.91R
BUMPASS*       CLOUDY    54  54  99 CALM      29.92R
FARMVILLE*     LGT RAIN  58  58 100 N5        29.90R
CREWE*         CLOUDY    58  58 100 CALM      29.90R
FORT PICKETT*  NOT AVBL
CHASE CITY*    CLOUDY    59  57  95 E3        29.89S
CLARKSVILLE*   CLOUDY    61  61 100 E5        29.88F
SOUTH HILL*    CLOUDY    58  58 100 CALM      29.95F
LAWRENCEVILLE* CLOUDY    57  57 100 CALM      29.90R
EMPORIA*       RAIN      55  55 100 W5        29.94R
$$

VAZ088>098-281000-
SOUTHEAST VIRGINIA

CITY           SKY/WX    TMP DP  RH WIND       PRES   REMARKS
NORFOLK        CLOUDY    57  54  89 SE3       29.90S
VIRGINIA BEACH LGT RAIN  60  54  80 CALM      29.90R
NORFOLK NAVAL  CLOUDY    57  55  93 CALM      29.92S
WEST POINT*    CLOUDY    56  55  95 N3        29.93R
SALUDA*        CLOUDY    55  55  97 N5        29.92R
NEWPORT NEWS   CLOUDY    58  55  90 E3        29.91R
LANGLEY AFB    CLOUDY    57  54  88 E5        29.91R
FORT EUSTIS    CLOUDY    58  57  98 CALM      29.89S
WILLIAMSBURG*  CLOUDY    59  57  94 CALM      29.92R
HR EXEC AP*    CLOUDY    57  54  88 SE5       29.92F
FRANKLIN*      RAIN      56  55  97 E3        29.91R
US460-WAKEFLD  CLOUDY    58  55  90 CALM      29.92R FOG
$$

VAZ020-022-025-037-045-281000-
WEST CENTRAL AND SOUTHWEST VIRGINIA

CITY           SKY/WX    TMP DP  RH WIND       PRES   REMARKS
STAUNTON*      CLOUDY    58  58 100 CALM      29.91F FOG
WAYNESBORO*    CLOUDY    55  54  96 MISG      29.89F
HOT SPRINGS VA NOT AVBL
LYNCHBURG      LGT RAIN  57  57 100 E3        29.92R
DANVILLE       CLOUDY    63  63 100 CALM      29.88S
SOUTH BOSTON*  CLOUDY    61  59  94 CALM      29.88F
MARTINSVILLE   CLOUDY    61  61 100 CALM      29.91R
ROANOKE        FOG       61  60  97 SE8       29.89F VSB 1/2
BLACKSBURG     CLOUDY    61  61  99 CALM      29.93R
DUBLIN*        LGT RAIN  60  60 100 W6        29.92R
MARION*        RAIN      59  57  92 W10       29.97S
HILLSVILLE*    MOCLDY    58  58 100 CALM      29.91S
RICHLANDS*     RAIN      57  39  50 SE5       29.93F VSB 1/4
WISE*          CLOUDY    57  57 100 S5        29.92S
ABINGDON*      MOCLDY    60  60  99 E5        29.92S
$$

MDZ021>025-VAZ099-100-281000-
SOUTHERN MARYLAND AND THE DELMARVA PENINSULA

CITY           SKY/WX    TMP DP  RH WIND       PRES   REMARKS
PATUXENT RIVER CLOUDY    53  50  89 NE6       29.94F
BAY BRIDGE APT NOT AVBL
LEONARDTOWN    CLOUDY    52  50  93 CALM      29.95F
DOVER          CLOUDY    50  50 100 N3        29.95R
GEORGETOWN     CLOUDY    49  46  90 CALM      29.96R
EASTON         CLOUDY   N/A N/A N/A CALM      30.00R
CAMBRIDGE      CLOUDY    50  46  87 E3        29.95R
SALISBURY      CLOUDY    50  47  89 N5        29.95R
OCEAN CITY     CLOUDY    51  48  89 NE3       29.95R
WALLOPS ISLAND CLOUDY    52  50  93 N6        29.95R
ACCOMACK*      CLOUDY   N/A N/A N/A N3        29.93S
$$

NCZ012>017-030>032-281000-
NORTH CENTRAL AND EASTERN NORTH CAROLINA

CITY           SKY/WX    TMP DP  RH WIND       PRES   REMARKS
ROANOKE RAPIDS CLOUDY    59  59 100 N7        29.90R
RALEIGH        MOCLDY    66  64  93 E6        29.89F
ELIZABETH CITY RAIN      59  59 100 CALM      29.91S
AHOSKIE*       LGT RAIN  63  62  97 CALM      29.89F
EDENTON*       LGT RAIN  66  66 100 SW6       29.92R
CURRITUCK*     RAIN      58  58 100 CALM      29.92S
KILL DEVIL HLS LGT RAIN  59  59 100 CALM      29.90S
MANTEO         NOT AVBL
CAPE HATTERAS  MOCLDY    68  66  93 W6        29.92R
TARBORO*       FAIR      65  63  95 SE3       29.90S
GOLDSBORO      CLOUDY    64  64 100 S5        29.88R
WASHINGTON     CLOUDY    64  61  89 E3        29.91S
GREENVILLE     LGT RAIN  64  64 100 E3        29.93R
NEW BERN       CLOUDY    66  63  90 N3        29.93R
WILMINGTON     MOCLDY    70  67  90 SW10      29.91R
$$

VAZ048-281000-
ELSEWHERE

CITY           SKY/WX    TMP DP  RH WIND       PRES   REMARKS
HARRISBURG PA  CLOUDY    52  47  83 CALM      29.95R FOG
BALTIMORE      CLOUDY    53  49  86 W3        29.95R
ANNAPOLIS      CLOUDY    54  50  86 E5        29.94R
ANDREWS AFB    CLOUDY    52  50  93 E2        29.94R
PHILADELPHIA   CLOUDY    49  44  83 N5        29.97R
HENDERSON NC   PTCLDY    64  64 100 CALM      29.88F FOG
GREENSBORO     MOCLDY    64  64 100 SE3       29.87S FOG
ROCKY MOUNT    PTCLDY    65  64  97 SE6       29.88F
$$

VAZ100-281000-
MARINE

STATION/POSITION TIME  TEMP    WIND        PRES    WAVE   SWELL
                       AIR SEA DIR/SP/G            HT/PER HT/PER
                 (UTC) (F)     (DEG/KT/KT) (MB)    (FT/S) (FT/S)
BRANDYWINE LGT   0800           40/  5/  6 1013.6F
CAPE MAY NJ      0800   49 58   50/  2/  3 1013.3F
LEWES DE         0800      56   40/  6/  7 1013.6S
15NM E FENWICK I 0850   51 52              1014.0R   3/ 6
OCEAN-CITY-INLET 0800   51 54   30/  4/  7 1012.7R
WACHAPREAGUE VA  0800   54 62   30/  5/  6 1012.6R
THOMAS POINT MD  0900   54 58  100/  4/  5 1015.7R
GOOSES REEF MD   0900   55 59   70/  8/  8 1014.9R   0
COVE POINT MD    0800   53      70/  4/  6 1014.4R
SOLOMONS ISLAND  0800   54 60   30/  4/  5   N/A
BISHOPS HEAD MD  0800   52 61   10/  3/  5 1013.5R
PINEY POINT MD   0800           70/  4/  5   N/A
POTOMAC MD       0900   55 59   50/ 10/ 12 1012.7R   0
CAMBRIDGE MD     0800   52 62   80/  4/  5 1013.1R
LEWISETTA VA     0800   55 62  300/  2/  2 1013.3R
RAPPAHANNOCK LGT 0800          240/  3/  4 1013.5R
STINGRAY PT      0900   57 62   40/ 10/ 12 1013.3R   1
YORK RVR RNG VA  0800   57     160/  2/  3 1011.9R
YORKTOWN VA      0800   58 62  140/  1/  2 1012.2R
JAMESTOWN VA     0900   58 68   50/  2/  4   N/A     0
DOMINION TERM VA 0800   57     100/  4/  5 1012.6R
KIPTOPEKE VA     0800      61  280/  1/  2   N/A
CHES BAY BRIDGE  0800   56 56   30/  1/  2 1012.2R
CAPE HENRY VA    0800   55     180/  1/  2   N/A
CHESAPEAKE LGHT  0800   54     340/  2/  2 1013.4R
WILLOUBY STN VA  0800   56     100/  2/  3 1013.5R
CAPE HENRY BUOY  0812      57                N/A     4/ 6
CAPE CHARLES BUO 0826      57                N/A     3/ 6   3/ 6
OFFSHORE WE BUOY 0821      55                N/A     4/ 6   3/ 6
64NM E OF VA BCH 0850   54 54  210/  6/  8 1012.7R   4/ 6   3/ 6
DUCK PIER NC     0800   56 63   70/  2/  3 1012.2R
44100 DUCK FRF   0824      58                N/A     4/ 6
44056 DUCK FRF   0811      57                N/A     3/ 7
OREGON INLET NC  0800   61 67  290/  2/  3 1012.4R
HATTERAS NC      0800   68 68  220/  5/  7 1012.7R
DIAMOND SHLS NC  0850   71 71  250/ 12/ 14 1012.8F   4/ 6   3/ 6
CAPE LOOKOUT NC  0900   68     220/  6/  9 1012.9R
$$



USA.gov is the U.S. government's official web portal to all federal, state and local government web resources and services.